TimeCST,TemperatureF,Dew PointF,Humidity,Sea Level PressureIn,VisibilityMPH,Wind Direction,Wind SpeedMPH,Gust SpeedMPH,PrecipitationIn,Events,Conditions,WindDirDegrees,DateUTC
12:53 AM,41.0,37.0,86,29.94,10.0,Calm,Calm,-,N/A,,Overcast,0,2014-01-02 06:53:00
1:53 AM,41.0,37.9,89,29.94,6.0,WSW,4.6,-,0.00,,Overcast,250,2014-01-02 07:53:00
2:35 AM,39.9,37.9,93,29.93,5.0,WNW,5.8,-,N/A,,Overcast,290,2014-01-02 08:35:00
2:53 AM,39.9,37.0,89,29.94,7.0,NW,8.1,-,N/A,,Overcast,310,2014-01-02 08:53:00
3:04 AM,39.0,36.0,89,29.93,9.0,NNW,10.4,-,N/A,,Overcast,330,2014-01-02 09:04:00
3:38 AM,37.9,35.1,89,29.93,9.0,NNW,9.2,-,N/A,,Overcast,330,2014-01-02 09:38:00
3:53 AM,37.0,34.0,89,29.94,7.0,NNW,16.1,21.9,N/A,,Overcast,330,2014-01-02 09:53:00
4:53 AM,30.9,28.9,92,29.96,3.0,NNW,16.1,25.3,0.00,Snow,Light Snow,340,2014-01-02 10:53:00
5:03 AM,30.9,28.0,89,29.96,1.8,NW,13.8,25.3,0.00,Snow,Light Snow,320,2014-01-02 11:03:00
5:30 AM,28.9,25.0,85,29.98,2.5,NW,11.5,21.9,0.02,Snow,Light Snow,320,2014-01-02 11:30:00
5:42 AM,28.0,24.1,85,30.00,3.0,NW,9.2,-,0.02,Snow,Light Snow,320,2014-01-02 11:42:00
5:46 AM,28.0,24.1,85,30.00,2.5,NW,11.5,19.6,0.02,Snow,Light Snow,310,2014-01-02 11:46:00
5:53 AM,27.0,23.0,85,30.03,1.2,NW,12.7,21.9,0.02,Snow,Light Snow,310,2014-01-02 11:53:00
6:11 AM,26.1,23.0,88,30.02,3.0,NNW,13.8,20.7,0.00,Snow,Light Snow,330,2014-01-02 12:11:00
6:38 AM,26.1,21.0,81,30.04,4.0,North,-9999.0,-,0.00,Snow,Light Snow,0,2014-01-02 12:38:00
6:44 AM,26.1,21.9,84,30.04,1.8,NNW,15.0,-,0.00,Snow,Light Snow,340,2014-01-02 12:44:00
6:50 AM,24.8,21.2,86,30.05,2.0,NNW,10.4,19.6,0.00,Snow,Light Snow,330,2014-01-02 12:50:00
6:53 AM,25.0,21.9,88,30.06,2.5,NW,12.7,19.6,0.00,Snow,Light Snow,320,2014-01-02 12:53:00
6:58 AM,25.0,21.0,85,30.05,4.0,NW,16.1,-,0.00,Snow,Light Snow,320,2014-01-02 12:58:00
7:06 AM,25.0,19.9,81,30.06,4.0,NNW,15.0,-,0.00,Snow,Light Snow,330,2014-01-02 13:06:00
7:23 AM,25.0,19.9,81,30.06,1.8,NNW,18.4,25.3,0.00,Snow,Light Snow,330,2014-01-02 13:23:00
7:53 AM,24.1,19.9,84,30.10,1.5,NNW,15.0,21.9,0.00,Snow,Light Snow,340,2014-01-02 13:53:00
8:16 AM,23.0,17.1,78,30.10,3.0,NNW,19.6,28.8,0.00,Snow,Light Snow,340,2014-01-02 14:16:00
8:41 AM,21.9,16.0,78,30.12,10.0,NNW,16.1,29.9,0.00,,Overcast,330,2014-01-02 14:41:00
8:53 AM,21.9,16.0,78,30.13,10.0,NNW,18.4,31.1,0.00,,Mostly Cloudy,330,2014-01-02 14:53:00
9:53 AM,23.0,17.1,78,30.17,10.0,NW,15.0,23.0,N/A,,Mostly Cloudy,320,2014-01-02 15:53:00
10:53 AM,24.1,16.0,71,30.20,10.0,NNW,18.4,27.6,N/A,,Overcast,330,2014-01-02 16:53:00
11:53 AM,23.0,16.0,74,30.19,10.0,NNW,18.4,29.9,N/A,,Overcast,340,2014-01-02 17:53:00
12:53 PM,25.0,16.0,69,30.21,10.0,NNW,24.2,33.4,N/A,,Mostly Cloudy,340,2014-01-02 18:53:00
1:09 PM,25.0,15.1,66,30.19,10.0,NNW,20.7,28.8,N/A,,Mostly Cloudy,340,2014-01-02 19:09:00
1:25 PM,25.0,16.0,69,30.19,10.0,NNW,19.6,27.6,N/A,,Mostly Cloudy,340,2014-01-02 19:25:00
1:43 PM,25.0,14.0,63,30.20,10.0,NNW,19.6,29.9,N/A,,Scattered Clouds,340,2014-01-02 19:43:00
1:53 PM,25.0,15.1,66,30.22,10.0,NNW,17.3,29.9,N/A,,Mostly Cloudy,340,2014-01-02 19:53:00
2:53 PM,26.1,14.0,60,30.24,10.0,NNW,23.0,34.5,N/A,,Mostly Cloudy,330,2014-01-02 20:53:00
3:53 PM,24.1,12.9,62,30.28,10.0,NNW,19.6,25.3,N/A,,Mostly Cloudy,340,2014-01-02 21:53:00
4:53 PM,23.0,12.0,63,30.32,10.0,NNW,11.5,23.0,N/A,,Mostly Cloudy,330,2014-01-02 22:53:00
5:53 PM,23.0,12.0,63,30.36,10.0,NNW,11.5,23.0,N/A,,Overcast,330,2014-01-02 23:53:00
6:53 PM,21.9,10.9,63,30.39,10.0,NNW,17.3,24.2,N/A,,Overcast,340,2014-01-03 00:53:00
7:53 PM,19.9,10.9,68,30.41,10.0,NNW,10.4,24.2,N/A,,Scattered Clouds,340,2014-01-03 01:53:00
8:53 PM,19.9,10.0,65,30.42,10.0,North,12.7,-,N/A,,Scattered Clouds,350,2014-01-03 02:53:00
9:03 PM,19.9,10.9,68,30.41,10.0,North,15.0,-,N/A,,Mostly Cloudy,360,2014-01-03 03:03:00
9:53 PM,19.0,10.0,68,30.44,10.0,North,11.5,-,N/A,,Mostly Cloudy,360,2014-01-03 03:53:00
10:10 PM,18.0,10.0,71,30.42,10.0,North,11.5,-,N/A,,Scattered Clouds,360,2014-01-03 04:10:00
10:53 PM,18.0,10.0,71,30.45,10.0,NNW,11.5,-,N/A,,Scattered Clouds,340,2014-01-03 04:53:00
11:53 PM,17.1,10.0,74,30.47,10.0,NNW,6.9,-,N/A,,Scattered Clouds,330,2014-01-03 05:53:00